Wind_Speed
17 19 21 22 24 26 28 31 33 35 38 40 41 42 43 43 43 42 42 41 39 36 34 34 33 32 32 31 32 33 35 36 38 40 43 45 45 47 45 45 43 39 35 32
20 22 22 21 22 23 24 25 26 27 30 33 35 36 37 39 40 39 39 38 36 36 36 36 36 36 36 35 35 36 37 39 41 43 45 47 47 47 48 50 46 41 37 35
22 23 22 23 23 24 25 26 27 27 27 28 29 31 33 35 36 36 36 35 35 36 37 38 38 37 37 37 37 38 39 41 43 45 46 47 48 45 46 46 42 37 34 33
22 24 24 24 25 25 26 27 28 28 28 29 30 33 33 35 36 37 37 36 36 36 38 39 42 41 39 39 40 42 43 43 44 46 47 48 47 46 42 40 36 33 31 30
19 21 22 23 25 26 27 28 29 30 30 30 31 35 36 36 38 39 41 41 41 41 42 43 45 46 46 46 47 47 49 50 50 50 49 47 44 41 39 35 33 31 29 29
15 17 19 20 22 24 25 27 28 29 29 29 29 32 34 34 37 41 45 47 47 49 50 51 51 52 53 54 54 55 55 55 54 53 51 45 40 37 34 31 29 28 29 30
12 14 16 17 19 20 22 24 25 25 25 24 24 26 26 26 29 34 40 45 49 52 55 57 59 59 60 60 60 60 60 58 57 54 50 45 40 37 33 30 28 29 31 33
11 13 14 15 17 18 20 21 23 24 22 19 18 20 20 22 25 28 31 36 40 45 49 53 56 58 59 60 60 60 59 57 55 50 46 43 40 36 34 31 30 32 33 35
13 14 16 16 16 17 18 18 19 20 18 17 15 16 18 22 25 27 29 32 35 39 43 48 52 54 56 57 57 57 56 55 52 48 43 41 40 37 36 34 34 34 35 37
13 13 14 13 13 13 14 14 15 18 20 20 18 17 22 24 26 28 31 33 35 38 42 45 49 52 54 55 56 55 54 52 49 46 42 40 38 38 38 37 36 36 36 37
10 10 10 12 13 14 15 17 18 20 22 25 24 20 25 27 29 31 34 36 38 40 42 44 47 49 50 49 50 50 48 45 41 38 38 37 35 35 36 37 37 37 37 36
10 11 11 13 15 17 18 19 20 22 24 26 29 26 28 30 32 34 36 38 40 42 43 44 45 45 44 42 40 40 40 38 36 34 33 33 32 32 33 34 34 34 34 34
15 16 17 18 19 21 22 23 24 26 27 28 30 29 31 33 34 35 37 38 40 41 42 41 40 37 35 33 31 31 31 30 30 30 29 29 30 29 29 30 30 31 32 32
22 22 23 24 25 26 26 27 28 29 30 31 30 31 30 33 34 35 36 37 39 39 38 36 33 30 27 26 26 26 26 26 26 25 25 25 26 27 28 29 30 31 32 32
24 25 26 26 28 30 30 29 32 33 33 34 32 32 32 32 33 34 34 35 36 36 34 31 29 24 22 20 21 20 21 22 22 22 23 23 24 26 27 29 30 31 31 32
24 25 26 26 27 31 31 30 34 35 35 35 34 32 33 33 32 33 32 31 32 31 29 27 24 20 17 16 16 16 16 17 19 20 21 22 24 26 28 29 30 30 31 31
22 24 26 25 25 29 28 27 32 34 35 34 34 33 33 32 31 31 29 28 28 27 25 23 21 18 16 15 15 16 16 17 18 19 21 22 23 25 27 28 29 30 30 30
22 24 26 26 26 26 25 27 29 31 31 31 32 32 32 32 30 30 27 25 25 23 22 20 18 16 15 14 13 14 15 15 16 18 20 21 22 24 25 26 27 27 28 28
24 25 27 27 28 26 22 26 30 32 29 28 31 30 31 31 29 29 26 24 22 20 19 17 16 15 13 13 12 12 13 14 15 16 18 20 21 22 23 23 24 24 24 22
26 26 27 28 29 27 25 26 27 29 27 26 29 29 30 31 30 28 26 23 19 18 17 16 15 14 13 12 11 11 12 12 13 14 15 17 17 18 18 18 19 18 17 16
26 27 29 30 30 28 28 28 28 28 28 27 27 28 29 30 30 28 25 22 19 16 14 13 12 11 11 10 9 9 10 11 12 13 13 14 14 14 14 15 14 14 13 13
27 29 29 30 29 28 29 29 29 29 28 27 27 27 28 28 28 28 26 23 19 16 14 13 12 11 11 10 9 8 8 9 10 10 11 11 11 11 11 11 12 12 12 12
28 31 33 32 30 30 31 32 32 32 30 29 29 28 28 28 28 28 26 24 21 17 15 14 14 13 12 11 10 9 9 9 9 9 9 9 9 9 9 10 11 11 12 13
29 34 35 33 32 32 33 33 34 34 33 32 31 29 28 27 27 28 28 26 23 21 18 17 16 15 14 13 12 11 10 10 9 9 9 8 8 8 9 10 11 12 13 15
36 39 39 36 33 33 32 34 35 35 35 34 32 30 29 27 26 28 29 29 26 24 23 21 20 18 17 16 15 14 13 11 11 10 10 9 9 9 10 11 12 14 14 15
40 40 41 39 37 37 34 34 36 36 36 35 34 32 30 29 27 27 28 29 28 26 25 24 24 22 21 19 17 16 15 14 13 12 12 12 12 12 12 13 13 14 15 15
Wind_Direction
243 243 245 247 248 248 248 248 246 245 245 248 250 253 256 259 260 262 263 264 264 264 261 261 261 260 260 259 260 264 270 273 273 273 272 274 273 270 268 267 266 268 268 270
248 250 253 256 257 259 261 260 258 256 254 255 256 257 259 261 262 262 262 261 260 259 259 260 262 260 258 258 259 263 268 272 272 271 270 271 271 269 268 266 264 263 266 268
253 256 258 259 260 260 262 263 263 263 262 261 262 261 262 264 264 265 265 264 263 263 263 265 265 262 261 260 262 265 270 273 273 272 269 269 270 270 270 265 265 265 270 272
254 257 258 259 260 261 263 265 267 268 266 264 265 262 260 262 265 267 267 267 266 265 265 264 265 267 268 271 273 276 275 276 275 274 271 268 265 266 267 265 266 269 275 279
252 254 256 257 259 261 264 266 268 270 270 268 264 263 261 259 260 264 266 268 268 268 267 267 268 271 273 275 276 278 279 279 279 277 273 271 265 263 265 265 267 271 277 280
253 253 255 256 259 261 265 267 269 272 273 272 269 267 265 263 261 261 262 265 268 269 270 270 270 271 273 274 276 277 278 278 278 277 276 275 268 263 260 261 266 270 275 277
260 260 260 261 263 265 268 272 274 275 276 279 280 278 279 278 272 269 267 267 269 270 271 272 272 272 272 273 274 275 276 275 276 277 277 274 268 260 257 260 265 270 273 276
278 276 275 274 274 275 277 279 280 282 283 282 282 287 291 288 283 281 280 279 278 277 276 275 275 274 274 274 274 273 274 275 275 276 275 274 271 260 255 258 263 268 272 277
283 280 282 282 282 284 285 285 287 288 291 292 292 294 295 291 291 293 294 293 290 287 284 282 279 278 276 275 274 273 273 274 275 275 274 273 268 261 258 259 262 267 272 277
287 288 287 287 288 291 295 298 297 297 299 299 297 300 299 297 301 305 308 307 303 300 295 290 285 282 279 276 274 274 272 271 272 273 270 267 264 262 258 258 260 265 271 276
289 288 283 283 286 292 293 295 296 297 300 302 302 307 302 304 309 312 314 314 312 309 304 299 293 288 284 280 276 272 271 268 267 265 262 261 261 259 259 259 262 266 270 274
290 285 281 281 285 287 289 291 292 295 297 299 302 308 306 307 311 315 317 317 317 315 312 306 300 294 287 281 276 270 265 261 259 258 257 256 253 253 256 259 262 264 267 270
293 290 287 285 285 284 285 288 290 293 294 295 298 304 305 307 311 315 317 319 320 318 316 311 306 299 290 278 268 259 253 251 249 249 249 247 247 249 252 257 261 264 267 269
297 295 293 291 290 289 288 289 290 291 292 293 295 297 300 303 309 313 317 320 322 321 318 315 310 302 291 273 257 251 247 243 240 240 240 242 247 249 253 258 262 265 268 269
300 300 297 293 290 286 285 289 289 289 289 291 292 294 297 300 305 310 315 319 322 322 319 317 313 306 293 274 259 251 247 240 238 241 241 244 249 252 256 260 263 266 268 269
307 306 303 301 295 290 289 290 287 286 287 287 288 291 292 296 301 307 313 318 322 323 322 319 316 310 299 283 271 259 254 249 245 246 249 252 254 257 259 261 264 266 267 269
313 310 309 310 303 300 305 299 291 289 288 287 286 287 287 290 296 303 310 316 320 321 322 320 318 313 304 290 278 268 261 255 254 254 254 255 256 259 261 263 265 267 269 270
316 313 313 314 311 313 318 307 302 297 293 290 287 285 285 287 292 298 305 311 316 319 320 319 317 314 308 300 290 278 271 266 263 262 260 260 260 263 264 266 268 271 273 273
316 316 316 318 317 321 324 312 305 303 302 293 287 285 284 285 287 291 297 302 309 315 317 317 314 310 306 301 293 282 273 269 268 266 265 265 265 266 268 268 271 272 272 273
317 317 317 318 319 325 327 314 310 308 308 295 289 287 286 284 283 285 289 292 297 307 312 312 310 307 302 296 291 285 280 277 274 272 272 271 270 270 270 271 272 274 276 274
314 315 316 316 318 324 320 318 317 314 312 304 296 289 286 284 284 282 281 283 287 294 302 309 311 311 311 307 301 294 289 286 283 280 278 278 275 271 269 270 271 271 272 272
313 313 313 315 318 319 316 316 316 315 313 309 304 294 287 285 282 277 276 275 276 280 287 294 299 303 308 311 312 312 310 305 298 292 286 282 276 270 265 263 263 266 268 270
311 308 311 316 317 313 312 312 313 313 313 310 307 302 293 287 281 274 271 270 268 268 273 280 287 292 297 301 306 312 315 316 315 311 303 292 281 271 264 260 262 266 269 275
304 301 306 311 311 307 307 307 308 308 309 310 308 305 299 290 283 275 269 267 266 264 266 272 277 283 287 291 294 298 303 306 311 313 310 299 286 275 268 266 267 270 275 280
304 309 311 311 307 303 303 301 301 302 303 305 305 304 301 296 285 277 270 266 265 264 263 267 271 275 279 282 284 286 290 294 297 299 300 298 294 285 278 275 274 277 279 283
305 308 310 311 309 305 303 298 297 297 298 299 299 299 297 294 287 278 272 268 265 264 263 264 267 270 271 273 275 277 280 283 287 289 291 292 292 290 287 283 281 282 283 285
Height
5852 5854 5854 5855 5856 5857 5858 5859 5861 5863 5864 5865 5866 5867 5867 5868 5869 5870 5871 5871 5872 5872 5872 5871 5871 5872 5872 5872 5871 5871 5869 5868 5867 5866 5865 5863 5862 5861 5859 5858 5857 5858 5859 5859
5849 5849 5850 5851 5852 5853 5854 5855 5856 5857 5858 5859 5860 5861 5860 5860 5861 5862 5862 5863 5863 5863 5862 5861 5861 5861 5862 5862 5862 5861 5860 5859 5857 5856 5854 5853 5850 5849 5849 5848 5847 5848 5849 5849
5844 5845 5846 5847 5848 5849 5849 5850 5851 5852 5853 5853 5854 5855 5854 5853 5853 5853 5854 5854 5855 5855 5854 5853 5852 5849 5849 5849 5850 5850 5850 5849 5847 5845 5843 5842 5839 5837 5836 5836 5837 5838 5839 5839
5840 5841 5842 5843 5843 5844 5844 5845 5845 5846 5847 5847 5848 5847 5848 5846 5845 5845 5845 5845 5846 5846 5846 5845 5843 5841 5839 5839 5839 5839 5839 5837 5836 5834 5830 5828 5827 5826 5826 5826 5827 5828 5829 5831
5837 5837 5837 5838 5838 5838 5839 5839 5839 5839 5839 5840 5839 5839 5839 5839 5838 5837 5836 5836 5836 5836 5836 5836 5835 5833 5832 5831 5831 5829 5829 5827 5826 5823 5820 5816 5813 5813 5815 5817 5818 5820 5821 5822
5833 5833 5834 5834 5834 5834 5834 5834 5833 5833 5832 5832 5831 5831 5830 5830 5830 5829 5827 5826 5825 5825 5825 5824 5824 5823 5822 5821 5820 5819 5818 5816 5814 5811 5809 5806 5804 5804 5806 5808 5809 5811 5813 5814
5831 5831 5830 5831 5831 5831 5830 5830 5829 5828 5827 5827 5826 5824 5825 5823 5822 5821 5819 5818 5816 5815 5813 5812 5812 5811 5810 5809 5808 5807 5805 5804 5801 5799 5798 5797 5795 5795 5797 5798 5800 5802 5804 5805
5830 5829 5829 5828 5828 5827 5826 5826 5826 5824 5823 5823 5821 5820 5820 5817 5815 5813 5812 5810 5807 5805 5802 5800 5798 5797 5796 5795 5794 5792 5791 5790 5789 5787 5786 5786 5786 5787 5788 5790 5792 5794 5795 5796
5828 5827 5826 5825 5824 5824 5823 5822 5821 5820 5819 5818 5817 5816 5815 5811 5809 5807 5804 5802 5799 5795 5791 5788 5785 5782 5780 5779 5778 5777 5776 5776 5775 5775 5775 5775 5776 5778 5780 5782 5783 5785 5786 5787
5825 5824 5823 5822 5822 5821 5820 5819 5818 5816 5814 5813 5813 5812 5809 5805 5802 5800 5796 5792 5788 5784 5780 5775 5770 5767 5764 5763 5762 5761 5762 5763 5763 5763 5764 5765 5766 5768 5770 5772 5774 5776 5777 5777
5821 5821 5820 5819 5818 5817 5817 5816 5813 5811 5809 5806 5805 5808 5802 5798 5795 5791 5787 5782 5777 5772 5767 5762 5757 5752 5749 5747 5746 5746 5747 5749 5751 5751 5753 5755 5757 5758 5761 5763 5765 5766 5767 5768
5818 5817 5816 5816 5814 5813 5811 5810 5808 5807 5804 5801 5797 5800 5794 5790 5786 5782 5779 5773 5767 5761 5755 5749 5743 5738 5735 5733 5732 5732 5734 5737 5739 5741 5743 5745 5747 5749 5752 5754 5755 5757 5758 5759
5815 5814 5812 5811 5811 5808 5806 5804 5802 5800 5798 5794 5791 5793 5786 5782 5778 5774 5770 5765 5758 5752 5745 5737 5731 5725 5722 5721 5721 5722 5723 5726 5729 5732 5734 5736 5738 5741 5743 5745 5747 5748 5749 5750
5810 5809 5808 5806 5804 5801 5799 5797 5795 5792 5790 5787 5785 5783 5780 5774 5771 5767 5762 5757 5751 5744 5737 5729 5723 5718 5714 5712 5712 5714 5715 5718 5720 5723 5725 5728 5730 5732 5735 5737 5738 5739 5740 5741
5804 5802 5801 5799 5797 5793 5792 5791 5787 5784 5782 5779 5777 5774 5771 5767 5764 5760 5756 5750 5744 5738 5731 5724 5718 5713 5710 5708 5707 5708 5710 5711 5714 5716 5718 5720 5723 5725 5727 5728 5730 5731 5731 5732
5798 5795 5793 5791 5789 5784 5783 5783 5779 5775 5773 5770 5767 5766 5762 5759 5756 5753 5749 5745 5739 5733 5727 5721 5715 5711 5708 5706 5705 5705 5706 5707 5709 5711 5713 5715 5716 5718 5720 5721 5722 5722 5723 5723
5794 5790 5787 5784 5781 5777 5775 5774 5769 5765 5763 5761 5758 5757 5754 5752 5749 5746 5743 5739 5734 5729 5723 5718 5714 5710 5707 5704 5703 5703 5703 5704 5705 5706 5708 5709 5710 5712 5713 5714 5714 5715 5715 5715
5789 5785 5781 5778 5775 5771 5772 5764 5760 5756 5755 5752 5749 5747 5745 5744 5742 5739 5737 5734 5730 5725 5720 5716 5712 5708 5706 5703 5701 5701 5701 5701 5701 5702 5703 5704 5705 5706 5706 5707 5707 5707 5707 5707
5785 5781 5777 5773 5769 5766 5765 5759 5753 5749 5748 5745 5741 5739 5737 5736 5735 5733 5730 5728 5725 5721 5717 5713 5709 5706 5704 5702 5700 5699 5698 5698 5698 5698 5699 5699 5700 5700 5700 5700 5700 5700 5700 5701
5781 5777 5773 5768 5763 5760 5760 5754 5748 5744 5741 5738 5734 5732 5730 5728 5727 5726 5724 5722 5720 5717 5714 5710 5707 5704 5702 5700 5698 5697 5696 5695 5695 5694 5694 5694 5694 5694 5694 5694 5695 5695 5695 5695
5776 5772 5768 5763 5758 5755 5752 5747 5743 5739 5737 5731 5728 5725 5723 5721 5719 5718 5717 5716 5714 5712 5710 5707 5705 5702 5700 5698 5696 5694 5693 5692 5691 5690 5689 5689 5689 5689 5689 5690 5690 5690 5691 5691
5771 5766 5762 5757 5753 5751 5745 5740 5737 5733 5729 5725 5721 5717 5715 5713 5711 5710 5709 5709 5708 5707 5706 5704 5702 5700 5698 5696 5694 5692 5690 5689 5688 5687 5686 5685 5685 5685 5685 5686 5686 5687 5687 5687
5765 5760 5754 5751 5749 5743 5738 5733 5729 5725 5721 5717 5713 5710 5707 5705 5703 5702 5701 5701 5701 5701 5700 5699 5698 5696 5695 5693 5691 5690 5688 5686 5685 5684 5683 5683 5682 5682 5682 5683 5683 5683 5684 5684
5759 5752 5747 5744 5741 5736 5731 5726 5721 5717 5713 5709 5706 5702 5699 5696 5695 5693 5693 5693 5693 5693 5694 5693 5693 5692 5691 5689 5688 5687 5686 5684 5683 5682 5682 5681 5680 5680 5680 5680 5680 5680 5680 5680
5750 5744 5740 5736 5733 5728 5724 5718 5713 5709 5705 5701 5698 5694 5691 5689 5687 5685 5684 5684 5684 5685 5686 5686 5686 5686 5685 5684 5684 5683 5682 5681 5681 5680 5680 5679 5678 5678 5677 5677 5677 5677 5677 5676
5741 5736 5731 5727 5723 5718 5715 5710 5705 5700 5696 5692 5689 5686 5683 5681 5678 5677 5675 5675 5675 5676 5677 5678 5678 5678 5678 5678 5678 5678 5678 5677 5677 5677 5676 5676 5675 5675 5674 5674 5673 5673 5673 5672